User: anonymous   Login
Location: Fort Worth, Tx
(32.7431°N, 97.3695°W)
Time: 12:35:47
(UTC-04:00)
Language:

AO-7 - Orbit

View from above orbital plane
View from above orbital plane
View from above satellite
View from above satellite

Ground track
Ground track

The orbit data is extracted from the following two-line orbital elements,

1  7530U 74089B   20262.92714736 -.00000045 +00000-0 -89907-6 0  9994
2  7530 101.8108 232.1800 0012030 182.5332 241.1568 12.53645134097706
Epoch (UTC): 18 September 2020 22:15:05
Eccentricity: 0.0012030
inclination: 101.8108°
perigee height: 1440 km
apogee height: 1458 km
right ascension of ascending node: 232.1800°
argument of perigee: 182.5332°
revolutions per day: 12.53645134
mean anomaly at epoch: 241.1568°
orbit number at epoch: 9770

The dashed part of the orbit path shows where the satellite is in the earth's shadow,  

DLR